Shungnak AP, Shungnak, AK, AK

10:27 AM AKDT on September 18, 2019 (GMT -0800)
Shungnak AP, Shungnak, AK

Weather History for PAGH - August, 2019

Change the Weather History Date:

Saturday, August 24, 2019

  Actual Average (WUND) Record (WUND)
Temperature  
Mean Temperature 46 °F -  
Max Temperature 60 °F - - (-1)
Min Temperature 32 °F - - (-1)
Degree Days  
Heating Degree Days 19    
Moisture  
Dew Point 35 °F    
Average Humidity 67    
Maximum Humidity 96    
Minimum Humidity 41    
Precipitation  
Precipitation 0.00 in - - ()
Sea Level Pressure  
Sea Level Pressure 29.82 in    
Wind  
Wind Speed 6 mph (West)    
Max Wind Speed 12 mph    
Max Gust Speed -    
Visibility 10 miles    
Events      
Averages and records for this station are not official NWS values.
T = Trace of Precipitation, MM = Missing Value Source: NWS Daily Summary

Daily Weather History Graph

Daily Weather History Graph

Search for Another Location

Airport or City:

Astronomy

Aug. 24, 2019 Rise Set
Actual Time 6:32 AM AKDT 10:27 PM AKDT
Civil Twilight 5:23 AM AKDT 11:34 PM AKDT
Nautical Twilight 3:03 AM AKDT 1:52 AM AKDT
Astronomical Twilight Sun does not set Sun does not set
Moon 11:24 PM AKDT (8/24) 7:44 PM AKDT (8/24)
Length of Visible Light 18h 11m
Length of Day
15h 55m
Last Quarter, 37% of the Moon is Illuminated
Aug 24
Last Quarter
Aug 30
New
Sep 5
First Quarter
Sep 13
Full
Sep 21
Last Quarter

Hourly Weather History & Observations

Time (AKDT) Temp. Windchill Dew Point Humidity Pressure Visibility Wind Dir Wind Speed Gust Speed Precip Events Conditions
12:56 AM 42.1 °F 37.7 °F 28.9 °F 60% 29.76 in 10.0 mi West 6.9 mph - N/A   Clear
1:56 AM 39.0 °F 34.0 °F 30.9 °F 73% 29.77 in 10.0 mi WSW 6.9 mph - N/A   Clear
2:56 AM 37.9 °F 33.5 °F 30.0 °F 73% 29.78 in 10.0 mi SW 5.8 mph - N/A   Clear
3:56 AM 35.1 °F 32.2 °F 30.9 °F 85% 29.80 in 10.0 mi ENE 3.5 mph - N/A   Clear
4:56 AM 32.0 °F 28.7 °F 28.9 °F 88% 29.81 in 10.0 mi East 3.5 mph - N/A   Clear
5:56 AM 33.1 °F 30.0 °F 32.0 °F 96% 29.82 in 10.0 mi SE 3.5 mph - N/A   Clear
6:56 AM 32.0 °F 26.4 °F 28.9 °F 88% 29.83 in 10.0 mi East 5.8 mph - N/A   Clear
7:56 AM 34.0 °F - 30.9 °F 89% 29.83 in 10.0 mi Calm Calm - N/A   Clear
8:56 AM 37.0 °F - 33.1 °F 86% 29.83 in 10.0 mi Calm Calm - N/A   Clear
10:56 AM 44.1 °F 42.5 °F 33.1 °F 65% 29.84 in 10.0 mi WNW 3.5 mph - N/A   Clear
11:56 AM 46.9 °F - 32.0 °F 56% 29.84 in 10.0 mi WSW 4.6 mph - N/A   Clear
12:56 PM 51.1 °F - 34.0 °F 52% 29.84 in 10.0 mi West 4.6 mph - N/A   Clear
1:56 PM 54.0 °F - 34.0 °F 47% 29.84 in 10.0 mi West 8.1 mph - N/A   Clear
2:56 PM 57.0 °F - 35.1 °F 44% 29.84 in 10.0 mi WNW 8.1 mph - N/A   Clear
3:56 PM 57.9 °F - 35.1 °F 42% 29.83 in 10.0 mi West 5.8 mph - N/A   Clear
4:56 PM 59.0 °F - 35.1 °F 41% 29.81 in 10.0 mi WNW 8.1 mph - N/A   Clear
5:56 PM 59.0 °F - 37.9 °F 46% 29.81 in 10.0 mi West 8.1 mph - N/A   Clear
6:56 PM 60.1 °F - 41.0 °F 49% 29.81 in 10.0 mi West 6.9 mph - N/A   Clear
7:56 PM 57.0 °F - 42.1 °F 57% 29.81 in 10.0 mi West 11.5 mph - N/A   Clear
8:56 PM 54.0 °F - 42.1 °F 64% 29.80 in 10.0 mi West 6.9 mph - N/A   Clear
9:56 PM 51.1 °F - 44.1 °F 77% 29.81 in 10.0 mi WSW 5.8 mph - N/A   Clear
10:56 PM 48.0 °F - 42.1 °F 80% 29.82 in 10.0 mi WSW 5.8 mph - N/A   Clear
11:56 PM 46.0 °F 43.1 °F 42.1 °F 86% 29.83 in 10.0 mi WSW 5.8 mph - N/A   Clear